Regional Weather Roundup
Issued by NWS

Home | Current Version | Previous Version | Graphics & Text | Print | Product List | Glossary On
Versions: 1 2 3 4 5 6 7 8 9 10 11 12 13 14 15 16 17 18 19 20 21 22 23 24 25 26 27 28 29 30 31 32 33 34 35 36 37 38 39 40 41 42 43 44 45 46 47 48 49 50
000
ASUS43 KIND 190400
RWRIN

WEATHER ROUNDUP FOR INDIANA
NATIONAL WEATHER SERVICE INDIANAPOLIS IN
1200 AM EDT THU OCT 19 2017

NOTE: "FAIR" INDICATES FEW OR NO CLOUDS BELOW 12,000 FEET WITH NO
SIGNIFICANT WEATHER AND/OR OBSTRUCTIONS TO VISIBILITY.

* - STATION DOES NOT REPORT WEATHER SUCH AS PRECIPITATION OR FOG.

+ - STATION NOT QUALITY CONTROLLED BY THE NATIONAL WEATHER SERVICE.
    USE DATA WITH CAUTION...ESPECIALLY DEWPOINT AND RELATIVE
    HUMIDITY OBSERVATIONS.

INZ001>003-010>013-019-020-190500-
NORTHWEST INDIANA

CITY           SKY/WX    TMP DP  RH WIND       PRES   REMARKS
MONTICELLO +   CLEAR     56  43  63 S6        30.13R
RENSSELAER +   CLEAR     55  37  50 S10       30.11S

$$

LMZ046-743>745-190500-
SOUTHERN LAKE MICHIGAN

STATION/POSITION TIME  TEMP    WIND        PRES    WAVE
                       AIR SEA DIR/SP/G            HT
                 (UTC) (F)     (DEG/KT/KT) (MB)    (FT)
BURNS HARBOR     0340   61     200/ 15/ 19 1018.6R
MICHIGAN CITY    0330   60     180/ 13/ 17   N/A
5NW MICH CITY    0350   61 58  210/ 16/ 19   N/A     2

$$

INZ004-005-014>016-021>024-190500-
NORTH CENTRAL INDIANA

CITY           SKY/WX    TMP DP  RH WIND       PRES   REMARKS
GOSHEN         CLEAR     55  42  61 S10       30.11S
PERU/GRISSOM   CLEAR     52  44  75 SW9       30.13F
SOUTH BEND     CLEAR     56  44  64 S12       30.10S

$$

INZ006>009-017-018-025>027-190500-
NORTHEAST INDIANA

CITY           SKY/WX    TMP DP  RH WIND       PRES   REMARKS
FORT WAYNE     CLEAR     50  42  74 S8        30.15S
KENDALLVILLE + CLEAR     54  43  66 S6        30.13S

$$

INZ028-029-035-036-043>045-051>053-190500-
WEST CENTRAL INDIANA

CITY           SKY/WX    TMP DP  RH WIND       PRES   REMARKS
LAFAYETTE      CLEAR     51  44  77 CALM      30.13S
TERRE HAUTE    CLEAR     56  45  66 S8        30.16R

$$

INZ030>032-037>040-046>048-054>057-064-065-190500-
CENTRAL INDIANA

CITY           SKY/WX    TMP DP  RH WIND       PRES   REMARKS
INDIANAPOLIS   CLEAR     55  45  68 S8        30.17R
-EAGLE CREEK   CLEAR     55  44  66 VRB3      30.15S
KOKOMO +       CLEAR     52  44  74 S7        30.16R
MT COMFORT *+  CLEAR     50  46  87 S3        30.18R
SHELBYVILLE    CLEAR     53  44  71 S6        30.17S

$$

INZ033-034-041-042-049-050-058-059-190500-
EAST CENTRAL INDIANA

CITY           SKY/WX    TMP DP  RH WIND       PRES   REMARKS
MUNCIE         CLEAR     57  44  62 SW7       30.16S
RICHMOND +     CLEAR     46  43  87 S6        30.20S

$$

INZ060-061-067>069-081>083-085>088-190500-
SOUTHWEST INDIANA

CITY           SKY/WX    TMP DP  RH WIND       PRES   REMARKS
EVANSVILLE     CLEAR     56  46  69 SW3       30.20S
HUNTINGBURG +  CLEAR     54  46  74 S5        30.20S

$$

INZ062-063-066-070>080-084-089>092-190500-
SOUTH CENTRAL AND SOUTHEAST INDIANA

CITY           SKY/WX    TMP DP  RH WIND       PRES   REMARKS
BLOOMINGTON    CLEAR     55  44  66 S7        30.18R
MADISON *+     CLEAR     50  46  87 CALM      30.22S
SEYMOUR +      CLEAR     52  43  71 S6        30.19R

$$




USA.gov is the U.S. government's official web portal to all federal, state and local government web resources and services.